sat.trackr.live / text

‹ back to catalog

STARLINK-34062

NORAD 64021 · 2025-101AD

PAYLOAD ACTIVE UNKNOWN

§ Identity

Operator
Country
US
Launch date
2025-05-14
Launch site
AFETR
Launch vehicle
Mass (kg)
RCS (m²)

Purposes: comms

External: N2YO · Heavens-Above · Gunter

§ Orbital elements

Epoch: 2026-05-25T02:24:34.562592Z

Period
94.27 min
Inclination
42.9990°
Eccentricity
0.0000592
Mean motion
15.27585251 rev/d
Perigee alt
482.6 km
Apogee alt
483.4 km
Semi-major
6,861.2 km
B*
3.6936e-4
RAAN
286.2229°
Arg perigee
40.5661°
Mean anomaly
319.5234°
Rev number
5,874

§ Raw data

STARLINK-340621 64021U 25101AD  26145.10040003  .00009917  00000+0  36936-3 0  99932 64021  42.9990 286.2229 0000592  40.5661 319.5234 15.27585251 58749

JSON: /api/v1/satellites/64021 · /tle

For live sub-satellite position, see the globe view (requires WebGL).

§ Visibility from observer

Set your observer location to see the next 7 days of passes ≥ 10°. The values pass through the URL so the page stays shareable.

No JS? Fill the form by hand. The geolocation button needs JavaScript.